WA5KWK Weather Reports


Display with metric or nautical units.
time (UTC)temp
F
wind
direction
speed
MPH
gust
MPH
rain 1hr
in
rain 24hr
in
rain mn
in
humidity
%
barometer
mb
20260503233504 61 208 5.0 9.0 0.00 0.00 0.00 75 1010.8
20260503233005 60 223 3.0 8.0 0.00 0.00 0.00 75 1010.8
20260503232505 60 221 3.0 5.0 0.00 0.00 0.00 76 1010.6
20260503232005 60 189 3.0 8.0 0.00 0.00 0.00 75 1010.7
20260503231504 59 194 3.0 9.0 0.00 0.00 0.00 77 1010.5
20260503231005 59 304 2.0 5.0 0.00 0.00 0.00 76 1010.6
20260503230004 59 191 6.0 9.0 0.00 0.00 0.00 76 1010.8
20260503225505 59 192 2.0 5.0 0.00 0.00 0.00 77 1010.8
20260503225005 59 184 3.0 9.0 0.00 0.00 0.00 76 1010.9
20260503224505 59 200 3.0 6.0 0.00 0.00 0.00 76 1010.8
20260503223005 60 223 3.0 7.0 0.00 0.00 0.00 74 1011.2
20260503222505 60 217 2.0 5.0 0.00 0.00 0.00 73 1011.2
20260503222005 60 201 2.0 3.0 0.00 0.00 0.00 76 1011.2
20260503221505 59 189 3.0 7.0 0.00 0.00 0.00 76 1011.4
20260503221005 59 214 3.0 6.0 0.00 0.00 0.00 77 1011.4
20260503220004 58 187 2.0 8.0 0.00 0.00 0.00 77 1011.5
20260503215504 58 243 2.0 8.0 0.00 0.00 0.00 79 1011.5
20260503215005 58 251 1.0 3.0 0.00 0.00 0.00 77 1011.3
20260503214505 58 249 4.0 8.0 0.00 0.00 0.00 77 1011.2
20260503213504 58 285 1.0 3.0 0.00 0.00 0.00 79 1011.5
20260503213005 57 213 2.0 3.0 0.00 0.00 0.00 79 1011.5
20260503212505 57 253 4.0 6.0 0.00 0.00 0.00 79 1011.5
20260503212005 58 194 5.0 8.0 0.00 0.00 0.00 78 1011.4
20260503211504 57 213 2.0 3.0 0.00 0.00 0.00 80 1011.4
20260503211005 57 218 3.0 7.0 0.00 0.00 0.00 78 1011.4
20260503210505 58 230 2.0 5.0 0.00 0.00 0.00 78 1011.4
20260503210006 58 198 3.0 7.0 0.00 0.00 0.00 79 1011.5
20260503205505 58 211 2.0 6.0 0.00 0.00 0.00 80 1011.4
20260503205005 58 243 1.0 5.0 0.00 0.00 0.00 78 1011.5
20260503204505 57 219 2.0 7.0 0.00 0.00 0.00 80 1011.3
20260503204005 57 285 3.0 7.0 0.00 0.00 0.00 79 1011.5
20260503203504 57 274 4.0 8.0 0.00 0.00 0.00 79 1011.4
20260503203005 57 254 2.0 6.0 0.00 0.00 0.00 79 1011.3
20260503202505 57 190 5.0 8.0 0.00 0.00 0.00 79 1011.4
20260503202004 57 262 3.0 8.0 0.00 0.00 0.00 78 1011.4
20260503201505 58 218 3.0 8.0 0.00 0.00 0.00 77 1011.3
20260503201005 58 181 5.0 9.0 0.00 0.00 0.00 77 1011.3
20260503200505 59 232 5.0 9.0 0.00 0.00 0.00 77 1011.3
20260503200005 59 196 5.0 8.0 0.00 0.00 0.00 76 1011.7
20260503195505 59 192 4.0 7.0 0.00 0.00 0.00 77 1011.5
20260503194505 58 281 5.0 9.0 0.00 0.00 0.00 77 1011.7
20260503193505 58 202 5.0 12.0 0.00 0.00 0.00 78 1011.6
20260503193005 58 201 4.0 9.0 0.00 0.00 0.00 78 1011.4
20260503192504 58 194 4.0 10.0 0.00 0.00 0.00 80 1011.3
20260503192005 57 211 4.0 9.0 0.00 0.00 0.00 81 1011.3
20260503191504 57 230 4.0 9.0 0.00 0.00 0.00 79 1011.2
20260503191005 57 270 4.0 8.0 0.00 0.00 0.00 79 1011.2
20260503190505 57 217 3.0 7.0 0.00 0.00 0.00 79 1011.2
20260503185505 56 239 3.0 8.0 0.00 0.00 0.00 82 1011.5
20260503185005 55 219 5.0 10.0 0.00 0.00 0.00 82 1011.4
20260503184504 55 217 5.0 8.0 0.00 0.00 0.00 81 1011.4
20260503184004 55 198 3.0 7.0 0.00 0.00 0.00 81 1011.6
20260503183504 56 195 2.0 8.0 0.00 0.00 0.00 82 1011.4
20260503183005 56 190 4.0 8.0 0.00 0.00 0.00 80 1011.6
20260503182505 56 201 5.0 7.0 0.00 0.00 0.00 80 1011.4
20260503182006 56 213 4.0 6.0 0.00 0.00 0.00 80 1011.4
20260503181506 56 238 3.0 5.0 0.00 0.00 0.00 80 1011.5
20260503181005 56 195 2.0 5.0 0.00 0.00 0.00 79 1011.4
20260503180504 57 195 3.0 5.0 0.00 0.00 0.00 79 1011.4
20260503180005 56 194 2.0 3.0 0.00 0.00 0.00 79 1011.5
20260503175505 56 218 2.0 3.0 0.00 0.00 0.00 79 1011.3
20260503175004 57 213 3.0 5.0 0.00 0.00 0.00 79 1011.3
20260503174504 57 213 3.0 5.0 0.00 0.00 0.00 79 1011.3
20260503174004 57 197 2.0 5.0 0.00 0.00 0.00 79 1011.4
20260503173504 56 174 1.0 5.0 0.00 0.00 0.00 82 1011.4
20260503173004 54 177 1.0 3.0 0.00 0.00 0.00 84 1011.4
20260503172504 53 178 2.0 3.0 0.00 0.00 0.00 85 1011.2
20260503172005 53 177 1.0 3.0 0.00 0.00 0.00 85 1011.4
20260503171504 52 177 1.0 3.0 0.00 0.00 0.00 86 1011.4
20260503171005 52 177 1.0 3.0 0.00 0.00 0.00 86 1011.3
20260503170504 52 177 1.0 3.0 0.00 0.00 0.00 86 1011.1
20260503151005 50 175 2.0 6.0 0.00 0.00 0.00 85 1010.3
20260503130505 55 50 0.0 0.0 0.00 0.00 0.00 72 1009.0
20260503110504 64 43 2.0 3.0 0.00 0.00 0.00 54 1009.5
20260503090504 61 266 0.0 0.0 0.00 0.00 0.00 64 1009.8
20260503081504 60 266 0.0 0.0 0.00 0.00 0.00 67 1010.4
20260503080505 60 266 0.0 0.0 0.00 0.00 0.00 68 1010.4
20260503072004 60 266 0.0 0.0 0.00 0.00 0.00 73 1010.8
20260503071504 60 266 0.0 0.0 0.00 0.00 0.00 74 1010.8
20260503071006 59 266 0.0 0.0 0.00 0.00 0.00 74 1010.7
20260503070504 59 266 0.0 0.0 0.00 0.00 0.00 75 1010.8
20260503055004 60 266 0.0 0.0 0.00 0.00 0.00 77 1011.0
20260503054504 60 266 1.0 2.0 0.00 0.00 0.00 77 1011.1
20260503054004 60 266 1.0 2.0 0.00 0.00 0.00 77 1011.0
20260503053017 61 266 0.0 0.0 0.00 0.00 0.00 77 1011.3
20260503052503 61 266 0.0 0.0 0.00 0.00 0.00 77 1011.3
20260503052005 61 266 0.0 0.0 0.00 0.00 0.00 77 1011.3
20260503051504 61 266 0.0 0.0 0.00 0.00 0.00 77 1011.3
20260503051004 61 266 0.0 0.0 0.00 0.00 0.00 77 1011.2
20260503050504 61 266 0.0 0.0 0.00 0.00 0.00 77 1011.3
20260503050005 61 266 0.0 0.0 0.00 0.00 0.00 77 1011.3
20260503045504 61 266 0.0 0.0 0.00 0.00 0.00 77 1011.3
20260503045004 61 266 0.0 0.0 0.00 0.00 0.00 78 1011.2
20260503044504 61 266 0.0 0.0 0.00 0.00 0.00 78 1011.2
20260503044004 61 266 0.0 0.0 0.00 0.00 0.00 79 1011.2
20260503043504 61 266 0.0 0.0 0.00 0.00 0.00 79 1011.2
20260503043011 61 266 0.0 2.0 0.00 0.00 0.00 79 1011.1
20260503042505 61 266 1.0 2.0 0.00 0.00 0.00 78 1011.1
20260503041504 61 266 0.0 0.0 0.00 0.00 0.00 78 1011.0
20260503040004 61 266 0.0 0.0 0.00 0.00 0.00 79 1011.0
20260503035504 61 266 0.0 0.0 0.00 0.00 0.00 79 1010.8
20260503035004 61 266 0.0 0.0 0.00 0.00 0.00 80 1010.8
20260503034504 61 266 0.0 0.0 0.00 0.00 0.00 80 1010.7
20260503034004 61 266 0.0 0.0 0.00 0.00 0.00 79 1010.7
20260503033505 62 266 0.0 0.0 0.00 0.00 0.00 78 1010.7
20260503033006 62 266 0.0 0.0 0.00 0.00 0.00 77 1010.7
20260503032504 62 266 0.0 0.0 0.00 0.00 0.00 76 1010.8
20260503032004 62 266 0.0 0.0 0.00 0.00 0.00 75 1010.7
20260503031004 63 266 0.0 0.0 0.00 0.00 0.00 73 1010.7
20260503030504 63 266 0.0 0.0 0.00 0.00 0.00 73 1010.7
20260503030004 63 266 0.0 0.0 0.00 0.00 0.00 71 1010.6
20260503025504 64 266 0.0 0.0 0.00 0.00 0.00 73 1010.7
20260503025004 64 266 0.0 0.0 0.00 0.00 0.00 71 1010.7
20260503024504 64 266 0.0 0.0 0.00 0.00 0.00 71 1010.6
20260503024005 64 266 0.0 0.0 0.00 0.00 0.00 71 1010.6
20260503023004 65 266 0.0 0.0 0.00 0.00 0.00 72 1010.7
20260503022504 65 266 0.0 0.0 0.00 0.00 0.00 71 1010.6
20260503022004 65 266 0.0 0.0 0.00 0.00 0.00 71 1010.7
20260503021504 66 266 0.0 0.0 0.00 0.00 0.00 70 1010.7
20260503021004 66 266 0.0 0.0 0.00 0.00 0.00 70 1010.7
20260503020503 66 266 0.0 0.0 0.00 0.00 0.00 71 1010.8
20260503020004 66 266 0.0 0.0 0.00 0.00 0.00 69 1010.7
20260503015503 66 266 0.0 0.0 0.00 0.00 0.00 70 1010.7
20260503015004 66 266 0.0 0.0 0.00 0.00 0.00 69 1010.8
20260503014504 67 266 0.0 0.0 0.00 0.00 0.00 68 1010.6
20260503014004 67 266 0.0 0.0 0.00 0.00 0.00 69 1010.8
20260503013504 67 266 0.0 0.0 0.00 0.00 0.00 69 1010.7
20260503013004 67 266 0.0 0.0 0.00 0.00 0.00 68 1010.9
20260503012504 67 266 0.0 0.0 0.00 0.00 0.00 68 1010.8
20260503012005 67 266 0.0 0.0 0.00 0.00 0.00 68 1010.7
20260503011005 67 266 0.0 0.0 0.00 0.00 0.00 71 1010.8
20260503005505 67 266 0.0 0.0 0.00 0.00 0.00 69 1010.9
20260503005005 66 266 0.0 3.0 0.00 0.00 0.00 70 1010.8
20260503004505 66 264 1.0 3.0 0.00 0.00 0.00 71 1010.8
20260503004005 67 261 2.0 3.0 0.00 0.00 0.00 71 1010.8
20260503003005 67 260 2.0 7.0 0.00 0.00 0.00 71 1011.0
20260503002505 68 267 2.0 7.0 0.00 0.00 0.00 69 1011.0
20260503002005 68 270 1.0 5.0 0.00 0.00 0.00 69 1010.9
20260503001505 69 268 2.0 3.0 0.00 0.00 0.00 68 1010.9
20260503001004 69 265 1.0 8.0 0.00 0.00 0.00 68 1010.9
20260503000505 70 224 2.0 5.0 0.00 0.00 0.00 67 1011.1
20260503000005 70 227 3.0 3.0 0.00 0.00 0.00 67 1011.0
20260502235505 70 314 2.0 5.0 0.00 0.00 0.00 66 1011.0
20260502235005 70 270 3.0 6.0 0.00 0.00 0.00 66 1011.0
20260502234504 71 299 1.0 9.0 0.00 0.00 0.00 66 1011.1
20260502234005 71 227 3.0 6.0 0.00 0.00 0.00 68 1011.1